星链-3577 (STARLINK-3577 )

导读

STARLINK-3577是美国SpaceX公司星链(Starlink)星座的成员,于2022年3月3日发射。星链项目旨在构建低轨卫星互联网星座,为全球缺少传统通信基础设施的偏远地区,提供高速低延迟宽带服务,目前服务已覆盖150余个国家,向航空、航海、手机直连等多场景拓展。

Basic Information
目录编号:
51884
目录名称:
STARLINK-3577
国际标识:
2022-022AJ
轨道中心:
EARTH
卫星名称:
星链-3577
卫星全名:
星链-3577 (STARLINK-3577 )
卫星状态:
在轨 (已飞行1646 天)
发射日期:
2022-03-03 UTC
国别 :
美国 (US)
星等 :
--
Orbit Information
数据来源 国际轨道数据 AOE轨道数据
星历时间 2026-09-03T19:21:02+0800
18小时前
查看轨道信息
2026-09-04T01:00:00+0800
13小时前
查看轨道信息
半长轴 6840.867km 6840.883km
偏心率 0.0001271 0.0001177
轨道倾角 53.159° 53.160°
近地点辐角 91.313° 76.117°
升交点赤经 269.661° 268.564°
平近点角 268.801° 144.980°
近地点 461.86km 461.94km
远地点 463.6km 463.552km
周期 93.848分钟 93.849分钟
每日圈数 15.343912 15.343857
Detailed Information
固有亮度:
5
最大亮度:
2.5
卫星平台:
Starlink v1.5
覆盖范围:
全球
运营商:
太空探索技术公司
运营商所在国:
美国
制造商(研发单位):
太空探索技术公司
制造商所在国:
美国
使用方式:
暂无
Satellite Introduction
星链(Starlink)计划是由太空探索技术公司(SpaceX)提出的一个巨型低轨卫星互联网星座项目,计划在2019年至2024年间在太空搭建由约1.2万颗卫星组成的“星链”网络,其中1584颗将部署在地球上空550千米处的近地轨道,并从2020年开始工作。该卫星仍在工作。
2D Orbit Map
3D Orbit Map
Orbit Altitude Analysis Chart
Orbit Inclination Analysis Chart
Orbit Comprehensive Analysis Chart
View Comprehensive Chart
Conjunction Data List
Event ID Objects TCA Miss Dist (km) Collision Risk Probability Collision Risk Index (CRI) Action
CDM_260905-112904-765505-188421
2026-09-05T
11:29:04+0000
0.784 km
远距离
2.854633E-5 中风险 0.64
CDM_260905-121504-765505-188421
2026-09-05T
12:15:56+0000
2.163 km
极远距离
1.220658E-6 低风险 0.37